Hourly Weather Kazanka

Today, 23 September, Wednesday

Time Temperature Precipitation Wind Pressure Humidity
00:00 +14°C° 0 mm 1 mps 756 mmHg 31%
01:00 +13°C° 0 mm 1 mps 756 mmHg 33%
02:00 +13°C° 0 mm 1 mps 756 mmHg 35%
03:00 +13°C° 0 mm 1 mps 756 mmHg 37%
04:00 +12°C° 0 mm 1 mps 756 mmHg 38%
05:00 +12°C° 0 mm 2 mps 755 mmHg 39%
06:00 +14°C° 0 mm 2 mps 755 mmHg 36%
07:00 +16°C° 0 mm 3 mps 755 mmHg 33%
08:00 +18°C° 0 mm 3 mps 755 mmHg 28%
09:00 +20°C° 0 mm 3 mps 755 mmHg 24%
10:00 +24°C° 0 mm 3 mps 755 mmHg 20%
11:00 +26°C° 0 mm 4 mps 755 mmHg 16%
12:00 +27°C° 0 mm 4 mps 754 mmHg 15%
13:00 +27°C° 0 mm 3 mps 754 mmHg 14%
14:00 +28°C° 0 mm 3 mps 753 mmHg 13%
15:00 +27°C° 0 mm 3 mps 753 mmHg 14%
16:00 +26°C° 0 mm 3 mps 752 mmHg 16%
17:00 +25°C° 0 mm 2 mps 752 mmHg 17%
18:00 +23°C° 0 mm 2 mps 752 mmHg 19%
19:00 +21°C° 0 mm 3 mps 752 mmHg 21%
20:00 +19°C° 0 mm 3 mps 752 mmHg 22%
21:00 +18°C° 0 mm 2 mps 752 mmHg 25%
22:00 +17°C° 0 mm 2 mps 752 mmHg 27%
23:00 +16°C° 0 mm 1 mps 752 mmHg 30%

Tomorrow, 24 September, Thursday

Time Temperature Precipitation Wind Pressure Humidity
00:00 +16°C° 0 mm 1 mps 752 mmHg 34%
01:00 +15°C° 0 mm 1 mps 752 mmHg 37%
02:00 +15°C° 0 mm 1 mps 752 mmHg 41%
03:00 +14°C° 0 mm 1 mps 752 mmHg 44%
04:00 +14°C° 0 mm 1 mps 752 mmHg 46%
05:00 +14°C° 0 mm 2 mps 752 mmHg 49%
06:00 +16°C° 0 mm 2 mps 752 mmHg 45%
07:00 +18°C° 0 mm 2 mps 752 mmHg 42%
08:00 +20°C° 0 mm 3 mps 752 mmHg 39%
09:00 +22°C° 0 mm 3 mps 752 mmHg 35%
10:00 +25°C° 0 mm 3 mps 752 mmHg 30%
11:00 +27°C° 0 mm 3 mps 752 mmHg 25%
12:00 +28°C° 0 mm 3 mps 751 mmHg 24%
13:00 +28°C° 0 mm 3 mps 751 mmHg 23%
14:00 +29°C° 0 mm 3 mps 751 mmHg 21%
15:00 +29°C° 0 mm 2 mps 751 mmHg 23%
16:00 +28°C° 0 mm 2 mps 750 mmHg 24%
17:00 +27°C° 0 mm 1 mps 750 mmHg 26%
18:00 +25°C° 0 mm 2 mps 750 mmHg 29%
19:00 +24°C° 0 mm 2 mps 751 mmHg 32%
20:00 +21°C° 0 mm 2 mps 751 mmHg 36%
21:00 +20°C° 0 mm 2 mps 751 mmHg 39%
22:00 +20°C° 0 mm 2 mps 751 mmHg 43%
23:00 +20°C° 0 mm 1 mps 751 mmHg 47%

Day after tomorrow, 25 September, Friday

Time Temperature Precipitation Wind Pressure Humidity
00:00 +19°C° 0 mm 1 mps 751 mmHg 50%
01:00 +19°C° 0 mm 1 mps 751 mmHg 53%
02:00 +18°C° 0 mm 1 mps 751 mmHg 56%
03:00 +18°C° 0 mm 1 mps 750 mmHg 60%
04:00 +16°C° 0 mm 1 mps 750 mmHg 64%
05:00 +16°C° 0 mm 2 mps 750 mmHg 68%
06:00 +18°C° 0 mm 2 mps 750 mmHg 64%
07:00 +19°C° 0 mm 2 mps 750 mmHg 60%
08:00 +21°C° 0 mm 2 mps 750 mmHg 55%
09:00 +24°C° 0 mm 3 mps 750 mmHg 49%
10:00 +26°C° 0 mm 3 mps 750 mmHg 43%
11:00 +28°C° 0 mm 3 mps 750 mmHg 37%
12:00 +29°C° 0 mm 4 mps 749 mmHg 35%
13:00 +30°C° 0 mm 4 mps 749 mmHg 33%
14:00 +30°C° 0 mm 4 mps 749 mmHg 32%
15:00 +30°C° 0 mm 4 mps 748 mmHg 34%
16:00 +29°C° 0 mm 3 mps 748 mmHg 36%
17:00 +28°C° 0 mm 3 mps 748 mmHg 37%
18:00 +26°C° 0.2 mm 3 mps 748 mmHg 44%
19:00 +25°C° 0.2 mm 4 mps 748 mmHg 50%
20:00 +22°C° 0.2 mm 4 mps 748 mmHg 57%
21:00 +21°C° 0 mm 4 mps 748 mmHg 60%
22:00 +20°C° 0 mm 3 mps 748 mmHg 64%
23:00 +19°C° 0 mm 3 mps 748 mmHg 68%

26 September, Saturday

Time Temperature Precipitation Wind Pressure Humidity
00:00 +19°C° 0 mm 2 mps 748 mmHg 70%
01:00 +18°C° 0 mm 2 mps 747 mmHg 71%
02:00 +17°C° 0 mm 2 mps 747 mmHg 73%
03:00 +17°C° 0 mm 2 mps 747 mmHg 72%
04:00 +17°C° 0 mm 3 mps 747 mmHg 71%
05:00 +16°C° 0 mm 3 mps 747 mmHg 70%
06:00 +18°C° 0 mm 4 mps 747 mmHg 64%
07:00 +19°C° 0 mm 4 mps 746 mmHg 58%
08:00 +21°C° 0 mm 4 mps 746 mmHg 52%
09:00 +23°C° 0 mm 5 mps 746 mmHg 46%
10:00 +26°C° 0 mm 6 mps 746 mmHg 41%
11:00 +29°C° 0 mm 6 mps 746 mmHg 35%
12:00 +30°C° 0 mm 7 mps 745 mmHg 34%
13:00 +30°C° 0 mm 7 mps 745 mmHg 33%
14:00 +32°C° 0 mm 7 mps 745 mmHg 32%
15:00 +30°C° 0 mm 7 mps 744 mmHg 33%
16:00 +30°C° 0 mm 6 mps 744 mmHg 34%
17:00 +29°C° 0 mm 6 mps 744 mmHg 36%
18:00 +27°C° 0 mm 6 mps 744 mmHg 39%
19:00 +26°C° 0 mm 6 mps 744 mmHg 42%
20:00 +23°C° 0 mm 6 mps 744 mmHg 46%
21:00 +22°C° 0 mm 6 mps 744 mmHg 47%
22:00 +22°C° 0 mm 6 mps 744 mmHg 48%
23:00 +21°C° 0 mm 6 mps 744 mmHg 50%

27 September, Sunday

Time Temperature Precipitation Wind Pressure Humidity
00:00 +21°C° 0 mm 6 mps 744 mmHg 51%
01:00 +21°C° 0 mm 6 mps 743 mmHg 52%
02:00 +21°C° 0 mm 7 mps 743 mmHg 53%
03:00 +21°C° 0 mm 7 mps 743 mmHg 55%
04:00 +21°C° 0 mm 7 mps 743 mmHg 58%
05:00 +22°C° 0 mm 7 mps 743 mmHg 60%
06:00 +21°C° 0.1 mm 8 mps 743 mmHg 60%
07:00 +21°C° 0.1 mm 9 mps 743 mmHg 60%
08:00 +21°C° 0.1 mm 10 mps 743 mmHg 61%
09:00 +22°C° 0.3 mm 10 mps 744 mmHg 59%
10:00 +24°C° 0.3 mm 9 mps 744 mmHg 58%
11:00 +26°C° 0.3 mm 9 mps 744 mmHg 57%
12:00 +27°C° 0.8 mm 9 mps 744 mmHg 50%
13:00 +28°C° 0.8 mm 8 mps 745 mmHg 43%
14:00 +28°C° 0.8 mm 8 mps 745 mmHg 36%
15:00 +27°C° 0 mm 7 mps 745 mmHg 38%
16:00 +26°C° 0 mm 6 mps 745 mmHg 39%
17:00 +25°C° 0 mm 5 mps 746 mmHg 41%
18:00 +22°C° 0 mm 4 mps 746 mmHg 47%
19:00 +20°C° 0 mm 4 mps 747 mmHg 53%
20:00 +18°C° 0 mm 3 mps 747 mmHg 59%
21:00 +18°C° 0 mm 3 mps 747 mmHg 65%
22:00 +17°C° 0 mm 3 mps 748 mmHg 71%
23:00 +16°C° 0 mm 2 mps 748 mmHg 76%

28 September, Monday

Time Temperature Precipitation Wind Pressure Humidity
00:00 +16°C° 0 mm 2 mps 748 mmHg 77%
01:00 +15°C° 0 mm 2 mps 748 mmHg 79%
02:00 +15°C° 0 mm 2 mps 749 mmHg 80%
03:00 +15°C° 0 mm 2 mps 749 mmHg 75%
04:00 +14°C° 0 mm 2 mps 749 mmHg 70%
05:00 +14°C° 0 mm 2 mps 750 mmHg 65%
06:00 +14°C° 0 mm 3 mps 750 mmHg 57%
07:00 +17°C° 0 mm 4 mps 751 mmHg 50%
08:00 +18°C° 0 mm 4 mps 751 mmHg 42%
09:00 +20°C° 0 mm 5 mps 751 mmHg 39%
10:00 +22°C° 0 mm 5 mps 751 mmHg 35%
11:00 +23°C° 0 mm 5 mps 751 mmHg 31%
12:00 +25°C° 0 mm 5 mps 751 mmHg 29%
13:00 +26°C° 0 mm 5 mps 751 mmHg 27%
14:00 +27°C° 0 mm 5 mps 751 mmHg 25%
15:00 +26°C° 0 mm 4 mps 751 mmHg 29%
16:00 +25°C° 0 mm 3 mps 751 mmHg 32%
17:00 +24°C° 0 mm 3 mps 750 mmHg 36%
18:00 +22°C° 0 mm 3 mps 750 mmHg 39%
19:00 +21°C° 0 mm 4 mps 750 mmHg 42%
20:00 +21°C° 0 mm 5 mps 750 mmHg 45%
21:00 +20°C° 0 mm 5 mps 750 mmHg 50%
22:00 +19°C° 0 mm 5 mps 750 mmHg 55%
23:00 +19°C° 0 mm 5 mps 750 mmHg 61%
Show more